When you browse on this site, cookies collect data to enhance your experience and personalize the content and advertising you see.
Visit our Privacy Policy to learn more. By continuing to use the site, you agree to this use of cookies and data.
  • In Hungary
  • List of Countries
  • For 7 days
  • Water Temperature
  • Satellite Maps
  • Weather Map
  • News
  • Weather Widgets
  • user-avatar
    Login

    Hourly Weather Manzini

    Today, 15 December, Saturday

    Time Temperature Precipitation Wind Pressure Humidity
    00:00 +22°C° 0 mm 1 mps 709 mmHg 93%
    01:00 +22°C° 0 mm 1 mps 709 mmHg 93%
    02:00 +21°C° 0 mm 1 mps 709 mmHg 91%
    03:00 +20°C° 0 mm 1 mps 709 mmHg 92%
    04:00 +20°C° 0 mm 1 mps 709 mmHg 92%
    05:00 +20°C° 0 mm 1 mps 709 mmHg 92%
    06:00 +22°C° 0 mm 1 mps 709 mmHg 80%
    07:00 +25°C° 0 mm 1 mps 709 mmHg 69%
    08:00 +27°C° 0 mm 2 mps 710 mmHg 57%
    09:00 +30°C° 0 mm 2 mps 709 mmHg 49%
    10:00 +34°C° 0 mm 2 mps 709 mmHg 41%
    11:00 +37°C° 0 mm 2 mps 709 mmHg 33%
    12:00 +37°C° 0 mm 2 mps 708 mmHg 32%
    13:00 +38°C° 0 mm 3 mps 708 mmHg 31%
    14:00 +38°C° 0 mm 3 mps 707 mmHg 30%
    15:00 +37°C° 0 mm 3 mps 707 mmHg 33%
    16:00 +36°C° 0 mm 3 mps 707 mmHg 36%
    17:00 +35°C° 0 mm 3 mps 706 mmHg 39%
    18:00 +31°C° 0 mm 3 mps 706 mmHg 47%
    19:00 +29°C° 0 mm 3 mps 707 mmHg 55%
    20:00 +26°C° 0 mm 2 mps 707 mmHg 63%
    21:00 +25°C° 0.1 mm 2 mps 708 mmHg 70%
    22:00 +24°C° 0.1 mm 2 mps 709 mmHg 76%
    23:00 +24°C° 0.1 mm 1 mps 709 mmHg 83%

    Tomorrow, 16 December, Sunday

    Time Temperature Precipitation Wind Pressure Humidity
    00:00 +23°C° 0.7 mm 1 mps 709 mmHg 85%
    01:00 +23°C° 0.7 mm 1 mps 710 mmHg 87%
    02:00 +23°C° 0.7 mm 1 mps 710 mmHg 89%
    03:00 +23°C° 0.3 mm 1 mps 709 mmHg 90%
    04:00 +23°C° 0.3 mm 1 mps 709 mmHg 91%
    05:00 +22°C° 0.3 mm 1 mps 709 mmHg 92%
    06:00 +23°C° 0 mm 1 mps 709 mmHg 88%
    07:00 +24°C° 0 mm 1 mps 709 mmHg 85%
    08:00 +25°C° 0 mm 1 mps 709 mmHg 82%
    09:00 +27°C° 0 mm 1 mps 709 mmHg 73%
    10:00 +28°C° 0 mm 1 mps 709 mmHg 65%
    11:00 +30°C° 0 mm 1 mps 709 mmHg 56%
    12:00 +32°C° 0 mm 2 mps 708 mmHg 52%
    13:00 +34°C° 0 mm 2 mps 708 mmHg 47%
    14:00 +35°C° 0 mm 2 mps 707 mmHg 43%
    15:00 +34°C° 0.1 mm 3 mps 707 mmHg 45%
    16:00 +34°C° 0.1 mm 3 mps 707 mmHg 48%
    17:00 +33°C° 0.1 mm 3 mps 706 mmHg 50%
    18:00 +30°C° 0.3 mm 2 mps 706 mmHg 58%
    19:00 +28°C° 0.3 mm 2 mps 707 mmHg 66%
    20:00 +25°C° 0.3 mm 1 mps 707 mmHg 75%
    21:00 +25°C° 0.3 mm 1 mps 707 mmHg 78%
    22:00 +24°C° 0.3 mm 1 mps 708 mmHg 82%
    23:00 +23°C° 0.3 mm 1 mps 708 mmHg 86%

    Day after tomorrow, 17 December, Monday

    Time Temperature Precipitation Wind Pressure Humidity
    00:00 +23°C° 0 mm 1 mps 708 mmHg 88%
    01:00 +22°C° 0 mm 1 mps 707 mmHg 91%
    02:00 +20°C° 0 mm 0 mps 707 mmHg 93%
    03:00 +20°C° 0.1 mm 0 mps 707 mmHg 94%
    04:00 +20°C° 0.1 mm 0 mps 707 mmHg 94%
    05:00 +20°C° 0.1 mm 0 mps 707 mmHg 95%
    06:00 +23°C° 0.1 mm 1 mps 708 mmHg 88%
    07:00 +25°C° 0.1 mm 1 mps 708 mmHg 82%
    08:00 +26°C° 0.1 mm 2 mps 708 mmHg 75%
    09:00 +29°C° 0 mm 2 mps 708 mmHg 64%
    10:00 +32°C° 0 mm 1 mps 707 mmHg 53%
    11:00 +35°C° 0 mm 1 mps 707 mmHg 42%
    12:00 +37°C° 0 mm 2 mps 706 mmHg 39%
    13:00 +37°C° 0 mm 2 mps 706 mmHg 37%
    14:00 +38°C° 0 mm 2 mps 705 mmHg 34%
    15:00 +38°C° 0 mm 3 mps 705 mmHg 36%
    16:00 +37°C° 0 mm 3 mps 704 mmHg 37%
    17:00 +36°C° 0 mm 3 mps 703 mmHg 39%
    18:00 +34°C° 0 mm 3 mps 704 mmHg 47%
    19:00 +30°C° 0 mm 2 mps 704 mmHg 56%
    20:00 +27°C° 0 mm 2 mps 705 mmHg 65%
    21:00 +26°C° 0.6 mm 1 mps 705 mmHg 71%
    22:00 +25°C° 0.6 mm 1 mps 706 mmHg 77%
    23:00 +24°C° 0.6 mm 1 mps 706 mmHg 83%

    18 December, Tuesday

    Time Temperature Precipitation Wind Pressure Humidity
    00:00 +24°C° 0 mm 1 mps 706 mmHg 84%
    01:00 +24°C° 0 mm 1 mps 705 mmHg 85%
    02:00 +23°C° 0 mm 1 mps 705 mmHg 86%
    03:00 +23°C° 0 mm 1 mps 705 mmHg 86%
    04:00 +23°C° 0 mm 1 mps 705 mmHg 87%
    05:00 +23°C° 0 mm 1 mps 705 mmHg 87%
    06:00 +25°C° 0 mm 1 mps 705 mmHg 77%
    07:00 +28°C° 0 mm 1 mps 706 mmHg 67%
    08:00 +30°C° 0 mm 1 mps 706 mmHg 57%
    09:00 +33°C° 0 mm 1 mps 706 mmHg 50%
    10:00 +35°C° 0 mm 1 mps 706 mmHg 42%
    11:00 +38°C° 0 mm 2 mps 706 mmHg 35%
    12:00 +39°C° 0 mm 2 mps 705 mmHg 32%
    13:00 +40°C° 0 mm 2 mps 704 mmHg 30%
    14:00 +40°C° 0 mm 2 mps 703 mmHg 27%
    15:00 +39°C° 0.1 mm 3 mps 703 mmHg 30%
    16:00 +38°C° 0.1 mm 3 mps 703 mmHg 33%
    17:00 +36°C° 0.1 mm 4 mps 702 mmHg 36%
    18:00 +33°C° 6.1 mm 3 mps 703 mmHg 51%
    19:00 +29°C° 6.1 mm 3 mps 704 mmHg 66%
    20:00 +26°C° 6.1 mm 3 mps 704 mmHg 81%
    21:00 +25°C° 1.6 mm 2 mps 704 mmHg 81%
    22:00 +25°C° 1.6 mm 2 mps 705 mmHg 82%
    23:00 +24°C° 1.6 mm 1 mps 705 mmHg 83%

    19 December, Wednesday

    Time Temperature Precipitation Wind Pressure Humidity
    00:00 +24°C° 0 mm 1 mps 704 mmHg 83%
    01:00 +24°C° 0 mm 1 mps 703 mmHg 83%
    02:00 +23°C° 0 mm 1 mps 702 mmHg 84%
    03:00 +23°C° 0 mm 1 mps 702 mmHg 84%
    04:00 +23°C° 0 mm 1 mps 702 mmHg 84%
    05:00 +23°C° 0 mm 1 mps 702 mmHg 84%
    06:00 +25°C° 0 mm 1 mps 703 mmHg 75%
    07:00 +27°C° 0 mm 1 mps 703 mmHg 66%
    08:00 +30°C° 0 mm 1 mps 704 mmHg 57%
    09:00 +32°C° 0 mm 1 mps 703 mmHg 50%
    10:00 +35°C° 0 mm 1 mps 703 mmHg 42%
    11:00 +39°C° 0 mm 1 mps 703 mmHg 34%
    12:00 +40°C° 0 mm 1 mps 703 mmHg 32%
    13:00 +40°C° 0 mm 1 mps 702 mmHg 30%
    14:00 +41°C° 0 mm 2 mps 702 mmHg 28%
    15:00 +40°C° 0 mm 2 mps 702 mmHg 31%
    16:00 +39°C° 0 mm 2 mps 702 mmHg 35%
    17:00 +38°C° 0 mm 2 mps 702 mmHg 38%
    18:00 +34°C° 0.9 mm 3 mps 702 mmHg 51%
    19:00 +30°C° 0.9 mm 4 mps 703 mmHg 64%
    20:00 +27°C° 0.9 mm 4 mps 703 mmHg 78%
    21:00 +26°C° 1.1 mm 4 mps 704 mmHg 82%
    22:00 +25°C° 1.1 mm 3 mps 705 mmHg 87%
    23:00 +23°C° 1.1 mm 2 mps 706 mmHg 92%

    20 December, Thursday

    Time Temperature Precipitation Wind Pressure Humidity
    00:00 +23°C° 1.2 mm 2 mps 706 mmHg 91%
    01:00 +21°C° 1.2 mm 2 mps 706 mmHg 91%
    02:00 +21°C° 1.2 mm 2 mps 706 mmHg 91%
    03:00 +22°C° 0.4 mm 1 mps 706 mmHg 91%
    04:00 +21°C° 0.4 mm 1 mps 707 mmHg 90%
    05:00 +21°C° 0.4 mm 1 mps 707 mmHg 90%
    06:00 +22°C° 0.1 mm 1 mps 707 mmHg 85%
    07:00 +22°C° 0.1 mm 1 mps 708 mmHg 80%
    08:00 +23°C° 0.1 mm 1 mps 708 mmHg 76%
    09:00 +24°C° 0.1 mm 1 mps 708 mmHg 71%
    10:00 +25°C° 0.1 mm 2 mps 708 mmHg 66%
    11:00 +26°C° 0.1 mm 2 mps 708 mmHg 62%
    12:00 +26°C° 0 mm 2 mps 708 mmHg 61%
    13:00 +27°C° 0 mm 2 mps 707 mmHg 59%
    14:00 +27°C° 0 mm 2 mps 707 mmHg 58%
    15:00 +26°C° 0 mm 2 mps 707 mmHg 62%
    16:00 +26°C° 0 mm 3 mps 707 mmHg 66%
    17:00 +25°C° 0 mm 3 mps 706 mmHg 69%
    18:00 +24°C° 0 mm 2 mps 707 mmHg 73%
    19:00 +23°C° 0 mm 2 mps 708 mmHg 77%
    20:00 +21°C° 0 mm 2 mps 708 mmHg 81%
    21:00 +21°C° 0.1 mm 2 mps 709 mmHg 83%
    22:00 +21°C° 0.1 mm 1 mps 709 mmHg 85%
    23:00 +21°C° 0.1 mm 1 mps 709 mmHg 87%
    Show more